Exmouth, United Kingdom
Current Conditions -  °F | °C
As of 4:20 PM on Thursday 18 Dec 2014 (Local Time) from EGTE Reporting Station
Broken Clouds Broken Clouds  
Wind Chill: 55°   Ceiling: 1800
Heat Index: 55°   Visibility: 6mi
Dew Point: 50°   Wind: 16mph
Humidity: 82%   Direction: 250°WSW
Pressure: 29.91"   Gusts: NA
Location:  50.62°N, 3.41°W
Report Text: EGTE 181620Z 25014KT 9999 BKN018 13/10 Q1013
Loading
Personal Weather Stations






























Interactive Weather Map New forecast layout! Learn more

10-Day Weather Forecast

Advertisements
Track Severe Weather on mobile